CZ-6A DEB, 61120

Orbit data source: Space-Track

CZ-6A DEB, 61120 is space debris in LEO originally from a launch on Tue, 06 Aug 2024 UTC launched from the Taiyaun Space Center, China (TSC). Debris objects in space refer to the collection of defunct objects orbiting the Earth. Examples of debris include non-operational satellites, rocket bodies, and fragments generated from explosions, collisions, or faulty payload assembly.

Loading next visibility...
Identifier
61120, 2024-140PN
Orbit
LEO
Country
Flag of CNCN / PRC
Related business
Manufacturer
SAST
Mission
Spacecraft
Bus & Motor
Unknown
Mass
Unknown
Launch date (UTC)
2024-08-06 (2 years ago)
Launch vehicle
Unknown
Launch site
Taiyaun Space Center, China (TSC)
Object type
Payload
Rocket body
Debris
Shape & HBR
Unknown shape, 0.1 m
Radar Cross Section
Medium (>0.1 m² and <1 m²)

Expand to show TLE details & history
Last TLE update: 15 hours ago

TLE from 15 hours ago
0 CZ-6A DEB
1 61120U 24140PN  26171.27750794  .00001633  00000-0  85091-3 0  9998
2 61120  88.9893 274.6123 0089549 213.9050 145.6393 14.12119215 94457
Epoch: 2026-06-20T06:39Z
TLE epoch observation values (Epoch: 2026-06-20T06:39:36.686Z)
Latitude
0.00001°
Longitude
-93.78499°
Altitude
908.813 km
Speed
7.37 km/s
True Right ascension
18h 18m 26s
True Declination
0° 00' 00"
Sunlit
Object was in full shadow at epoch
Visualization orbit readout
Latitude
Unknown
Longitude
Unknown
Altitude
Unknown
Speed
Unknown
Apparent Right ascension
Unknown
Apparent Declination
Unknown
Sunlit
N/A
Visualization observer readout
Local Sidereal Time
08:42:20
Azimuth
Unknown
Elevation
Unknown
Doppler factor
Unknown
Orbital elements
Apogee altitude
913.81 km
Perigee altitude
784.372 km
Semi-major axis
7,227.228 km
Eccentricity
0.00895
Inclination
88.9893°
RAAN
274.6123°
Arg. of periapsis
213.905°
True anomaly
146.21315°
Mean anomaly
145.6393°
Eccentric anomaly
145.92675°
Mean motion
3.53253 °/min
Orbital period
101.91 mins
BSTAR
0.00085091
Loading maneuver chart data...
Computing Atmospheric mass density...
Loading historical data...
Loading historical data...
Loading historical data...
Loading historical data...
Loading historical data...
Loading historical data...
Loading historical data...

Documentation

Showing up to 5 results
|